Time,TemperatureF,DewpointF,PressureIn,WindDirection,WindDirectionDegrees,WindSpeedMPH,WindSpeedGustMPH,Humidity,HourlyPrecipIn,Conditions,Clouds,dailyrainin,SoftwareType,DateUTC
2013-04-09 00:00:00,50.1,25.5,30.00,SE,136,0.0,7.0,38,0.00,,---,0.00,VWS V14.01,2013-04-09 04:00:00,
2013-04-09 00:05:00,50.1,25.5,30.00,SE,136,2.0,5.0,38,0.00,,---,0.00,VWS V14.01,2013-04-09 04:05:00,
2013-04-09 00:10:00,49.9,25.3,30.00,SE,140,3.0,5.0,38,0.00,,---,0.00,VWS V14.01,2013-04-09 04:10:00,
2013-04-09 00:15:00,49.5,25.0,30.00,SE,133,3.0,6.0,38,0.00,,---,0.00,VWS V14.01,2013-04-09 04:15:00,
2013-04-09 00:20:00,49.2,24.7,30.00,SE,133,2.0,6.0,38,0.00,,---,0.00,VWS V14.01,2013-04-09 04:20:00,
2013-04-09 00:25:00,48.6,24.2,30.00,SE,134,7.0,9.0,38,0.00,,---,0.00,VWS V14.01,2013-04-09 04:25:00,
2013-04-09 00:30:00,48.3,23.9,30.00,ESE,109,3.0,9.0,38,0.00,,---,0.00,VWS V14.01,2013-04-09 04:30:00,
2013-04-09 00:35:00,48.0,23.6,30.00,ESE,105,4.0,6.0,38,0.00,,---,0.00,VWS V14.01,2013-04-09 04:35:00,
2013-04-09 00:40:00,47.9,23.5,30.00,ESE,112,4.0,9.0,38,0.00,,---,0.00,VWS V14.01,2013-04-09 04:40:00,
2013-04-09 00:45:00,47.7,23.4,30.00,ESE,115,3.0,9.0,38,0.00,,---,0.00,VWS V14.01,2013-04-09 04:45:00,
2013-04-09 00:50:00,47.6,23.3,29.99,ESE,107,2.0,9.0,38,0.00,,---,0.00,VWS V14.01,2013-04-09 04:50:00,
2013-04-09 00:55:00,47.4,23.1,29.99,ESE,108,3.0,9.0,38,0.00,,---,0.00,VWS V14.01,2013-04-09 04:55:00,
2013-04-09 01:00:00,47.3,23.0,29.99,SE,128,1.0,9.0,38,0.00,,---,0.00,VWS V14.01,2013-04-09 05:00:00,
2013-04-09 01:05:00,47.3,23.0,29.99,ESE,123,1.0,6.0,38,0.00,,---,0.00,VWS V14.01,2013-04-09 05:05:00,
2013-04-09 01:10:00,47.1,22.8,29.99,ESE,122,1.0,6.0,38,0.00,,---,0.00,VWS V14.01,2013-04-09 05:10:00,
2013-04-09 01:15:00,47.1,23.4,29.99,SE,130,2.0,6.0,39,0.00,,---,0.00,VWS V14.01,2013-04-09 05:15:00,
2013-04-09 01:20:00,47.0,23.3,29.98,ESE,117,1.0,6.0,39,0.00,,---,0.00,VWS V14.01,2013-04-09 05:20:00,
2013-04-09 01:25:00,47.0,23.3,29.98,SE,126,1.0,6.0,39,0.00,,---,0.00,VWS V14.01,2013-04-09 05:25:00,
2013-04-09 01:30:00,46.8,23.2,29.98,East,97,1.0,6.0,39,0.00,,---,0.00,VWS V14.01,2013-04-09 05:30:00,
2013-04-09 01:35:00,46.8,23.2,29.97,ESE,113,2.0,6.0,39,0.00,,---,0.00,VWS V14.01,2013-04-09 05:35:00,
2013-04-09 01:40:00,46.8,23.2,29.97,ESE,113,0.0,6.0,39,0.00,,---,0.00,VWS V14.01,2013-04-09 05:40:00,
2013-04-09 01:45:00,46.8,23.2,29.97,ESE,113,1.0,6.0,39,0.00,,---,0.00,VWS V14.01,2013-04-09 05:45:00,
2013-04-09 01:50:00,46.8,23.2,29.96,ESE,113,0.0,6.0,39,0.00,,---,0.00,VWS V14.01,2013-04-09 05:50:00,
2013-04-09 01:55:00,46.7,23.1,29.96,ESE,113,0.0,6.0,39,0.00,,---,0.00,VWS V14.01,2013-04-09 05:55:00,
2013-04-09 02:00:00,46.8,23.2,29.96,ESE,113,2.0,6.0,39,0.00,,---,0.00,VWS V14.01,2013-04-09 06:00:00,
2013-04-09 02:05:00,46.7,23.1,29.94,ESE,103,0.0,4.0,39,0.00,,---,0.00,VWS V14.01,2013-04-09 06:05:00,
2013-04-09 02:10:00,46.7,23.1,29.94,ESE,103,2.0,4.0,39,0.00,,---,0.00,VWS V14.01,2013-04-09 06:10:00,
2013-04-09 02:15:00,46.5,22.9,29.94,ESE,104,0.0,4.0,39,0.00,,---,0.00,VWS V14.01,2013-04-09 06:15:00,
2013-04-09 02:20:00,46.5,22.9,29.95,ESE,103,2.0,4.0,39,0.00,,---,0.00,VWS V14.01,2013-04-09 06:20:00,
2013-04-09 02:25:00,46.5,22.9,29.95,ESE,103,2.0,4.0,39,0.00,,---,0.00,VWS V14.01,2013-04-09 06:25:00,
2013-04-09 02:30:00,46.5,22.9,29.95,ESE,110,3.0,4.0,39,0.00,,---,0.00,VWS V14.01,2013-04-09 06:30:00,
2013-04-09 02:35:00,46.5,22.9,29.94,ESE,110,1.0,2.0,39,0.00,,---,0.00,VWS V14.01,2013-04-09 06:35:00,
2013-04-09 02:40:00,46.5,22.9,29.94,ESE,109,1.0,4.0,39,0.00,,---,0.00,VWS V14.01,2013-04-09 06:40:00,
2013-04-09 02:45:00,46.5,22.9,29.94,ESE,110,0.0,4.0,39,0.00,,---,0.00,VWS V14.01,2013-04-09 06:45:00,
2013-04-09 02:50:00,46.5,22.9,29.93,East,95,1.0,4.0,39,0.00,,---,0.00,VWS V14.01,2013-04-09 06:50:00,
2013-04-09 02:55:00,46.4,22.8,29.93,East,95,1.0,4.0,39,0.00,,---,0.00,VWS V14.01,2013-04-09 06:55:00,
2013-04-09 03:00:00,46.4,22.8,29.93,East,95,3.0,4.0,39,0.00,,---,0.00,VWS V14.01,2013-04-09 07:00:00,
2013-04-09 03:05:00,46.4,22.8,29.92,East,98,3.0,4.0,39,0.00,,---,0.00,VWS V14.01,2013-04-09 07:05:00,
2013-04-09 03:10:00,46.4,22.8,29.92,East,97,0.0,4.0,39,0.00,,---,0.00,VWS V14.01,2013-04-09 07:10:00,
2013-04-09 03:15:00,46.4,22.8,29.92,East,97,0.0,4.0,39,0.00,,---,0.00,VWS V14.01,2013-04-09 07:15:00,
2013-04-09 03:20:00,46.4,22.8,29.92,ESE,110,0.0,5.0,39,0.00,,---,0.00,VWS V14.01,2013-04-09 07:20:00,
2013-04-09 03:25:00,46.4,22.8,29.92,ESE,110,0.0,5.0,39,0.00,,---,0.00,VWS V14.01,2013-04-09 07:25:00,
2013-04-09 03:30:00,46.4,22.8,29.92,ESE,110,0.0,5.0,39,0.00,,---,0.00,VWS V14.01,2013-04-09 07:30:00,
2013-04-09 03:35:00,46.5,22.9,29.91,ESE,110,2.0,3.0,39,0.00,,---,0.00,VWS V14.01,2013-04-09 07:35:00,
2013-04-09 03:40:00,46.4,22.8,29.91,ESE,110,0.0,3.0,39,0.00,,---,0.00,VWS V14.01,2013-04-09 07:40:00,
2013-04-09 03:45:00,46.5,22.9,29.91,ESE,110,0.0,3.0,39,0.00,,---,0.00,VWS V14.01,2013-04-09 07:45:00,
2013-04-09 03:50:00,46.5,22.9,29.91,ESE,110,0.0,3.0,39,0.00,,---,0.00,VWS V14.01,2013-04-09 07:50:00,
2013-04-09 03:55:00,46.7,23.1,29.91,ESE,110,0.0,3.0,39,0.00,,---,0.00,VWS V14.01,2013-04-09 07:55:00,
2013-04-09 04:00:00,46.7,23.1,29.91,ESE,110,3.0,3.0,39,0.01,,---,0.01,VWS V14.01,2013-04-09 08:00:00,
2013-04-09 04:05:00,46.8,23.2,29.90,ESE,111,0.0,5.0,39,0.01,,---,0.01,VWS V14.01,2013-04-09 08:05:00,
2013-04-09 04:10:00,46.8,23.2,29.90,ESE,111,3.0,5.0,39,0.01,,---,0.01,VWS V14.01,2013-04-09 08:10:00,
2013-04-09 04:15:00,46.8,23.8,29.89,ESE,112,0.0,5.0,40,0.03,,---,0.03,VWS V14.01,2013-04-09 08:15:00,
2013-04-09 04:20:00,47.0,24.0,29.89,ESE,107,0.0,5.0,40,0.03,,---,0.03,VWS V14.01,2013-04-09 08:20:00,
2013-04-09 04:25:00,47.0,24.0,29.89,ESE,113,3.0,5.0,40,0.03,,---,0.03,VWS V14.01,2013-04-09 08:25:00,
2013-04-09 04:30:00,47.0,24.0,29.88,ESE,113,3.0,5.0,40,0.03,,---,0.03,VWS V14.01,2013-04-09 08:30:00,
2013-04-09 04:35:00,47.1,24.0,29.88,ESE,113,5.0,5.0,40,0.03,,---,0.03,VWS V14.01,2013-04-09 08:35:00,
2013-04-09 04:40:00,47.1,24.0,29.88,SSE,153,1.0,7.0,40,0.03,,---,0.03,VWS V14.01,2013-04-09 08:40:00,
2013-04-09 04:45:00,47.3,24.2,29.87,ESE,103,1.0,7.0,40,0.03,,---,0.03,VWS V14.01,2013-04-09 08:45:00,
2013-04-09 04:50:00,47.3,24.2,29.87,ESE,103,1.0,7.0,40,0.03,,---,0.03,VWS V14.01,2013-04-09 08:50:00,
2013-04-09 04:55:00,47.3,24.2,29.87,ESE,104,1.0,7.0,40,0.03,,---,0.03,VWS V14.01,2013-04-09 08:55:00,
2013-04-09 05:00:00,47.3,24.2,29.87,SE,127,2.0,7.0,40,0.03,,---,0.03,VWS V14.01,2013-04-09 09:00:00,
2013-04-09 05:05:00,47.3,24.2,29.87,SE,129,1.0,4.0,40,0.02,,---,0.03,VWS V14.01,2013-04-09 09:05:00,
2013-04-09 05:10:00,47.3,24.2,29.87,SE,134,2.0,5.0,40,0.02,,---,0.03,VWS V14.01,2013-04-09 09:10:00,
2013-04-09 05:15:00,47.3,24.2,29.87,SE,137,0.0,6.0,40,0.02,,---,0.03,VWS V14.01,2013-04-09 09:15:00,
2013-04-09 05:20:00,47.3,24.2,29.87,SE,138,2.0,6.0,40,0.02,,---,0.03,VWS V14.01,2013-04-09 09:20:00,
2013-04-09 05:25:00,47.3,24.2,29.87,SE,140,2.0,6.0,40,0.02,,---,0.03,VWS V14.01,2013-04-09 09:25:00,
2013-04-09 05:30:00,47.3,24.2,29.87,SE,127,6.0,7.0,40,0.02,,---,0.03,VWS V14.01,2013-04-09 09:30:00,
2013-04-09 05:35:00,47.3,24.2,29.87,SE,132,0.0,4.0,40,0.00,,---,0.03,VWS V14.01,2013-04-09 09:35:00,
2013-04-09 05:40:00,47.1,24.0,29.87,SSE,148,2.0,5.0,40,0.00,,---,0.03,VWS V14.01,2013-04-09 09:40:00,
2013-04-09 05:45:00,47.1,24.0,29.86,SSE,148,5.0,5.0,40,0.00,,---,0.03,VWS V14.01,2013-04-09 09:45:00,
2013-04-09 05:50:00,47.1,24.0,29.86,South,169,0.0,6.0,40,0.00,,---,0.03,VWS V14.01,2013-04-09 09:50:00,
2013-04-09 05:55:00,47.0,24.0,29.86,SE,141,3.0,6.0,40,0.00,,---,0.03,VWS V14.01,2013-04-09 09:55:00,
2013-04-09 06:00:00,46.8,23.8,29.88,SE,141,2.0,6.0,40,0.00,,---,0.03,VWS V14.01,2013-04-09 10:00:00,
2013-04-09 06:05:00,46.8,23.8,29.88,SE,141,1.0,4.0,40,0.00,,---,0.03,VWS V14.01,2013-04-09 10:05:00,
2013-04-09 06:10:00,46.8,23.8,29.88,SE,142,4.0,4.0,40,0.00,,---,0.03,VWS V14.01,2013-04-09 10:10:00,
2013-04-09 06:15:00,46.7,23.7,29.88,SE,143,0.0,4.0,40,0.00,,---,0.03,VWS V14.01,2013-04-09 10:15:00,
2013-04-09 06:21:00,46.7,23.7,29.88,SE,142,0.0,4.0,40,0.00,,---,0.03,VWS V14.01,2013-04-09 10:21:00,
2013-04-09 06:26:00,46.7,23.7,29.88,SE,142,0.0,4.0,40,0.00,,---,0.03,VWS V14.01,2013-04-09 10:26:00,
2013-04-09 06:30:00,47.3,24.2,29.87,SE,128,4.0,7.0,40,0.02,,---,0.03,VWS V14.01,2013-04-09 10:30:00,
2013-04-09 06:31:00,46.7,23.7,29.88,SE,142,0.0,4.0,40,0.00,,---,0.03,VWS V14.01,2013-04-09 10:31:00,
2013-04-09 06:36:00,46.7,23.7,29.88,SE,142,0.0,0.0,40,0.00,,---,0.03,VWS V14.01,2013-04-09 10:36:00,
2013-04-09 06:40:00,46.8,23.8,29.88,SE,142,0.0,0.0,40,0.00,,---,0.03,VWS V14.01,2013-04-09 10:40:00,
2013-04-09 06:46:00,46.8,23.8,29.87,SE,142,0.0,0.0,40,0.00,,---,0.03,VWS V14.01,2013-04-09 10:46:00,
2013-04-09 06:51:00,46.8,23.8,29.87,SE,142,0.0,0.0,40,0.00,,---,0.03,VWS V14.01,2013-04-09 10:51:00,
2013-04-09 06:56:00,46.8,23.8,29.87,SE,142,0.0,0.0,40,0.00,,---,0.03,VWS V14.01,2013-04-09 10:56:00,
2013-04-09 07:00:00,46.8,23.8,29.88,SE,141,0.0,6.0,40,0.00,,---,0.03,VWS V14.01,2013-04-09 11:00:00,
2013-04-09 07:01:00,46.8,23.8,29.87,SE,142,0.0,0.0,40,0.00,,---,0.03,VWS V14.01,2013-04-09 11:01:00,
2013-04-09 07:06:00,47.0,24.0,29.87,SE,142,0.0,0.0,40,0.00,,---,0.03,VWS V14.01,2013-04-09 11:06:00,
2013-04-09 07:11:00,47.0,24.0,29.87,SE,142,0.0,0.0,40,0.00,,---,0.03,VWS V14.01,2013-04-09 11:11:00,
2013-04-09 07:16:00,47.1,24.0,29.87,SE,142,0.0,1.0,40,0.00,,---,0.03,VWS V14.01,2013-04-09 11:16:00,
2013-04-09 07:21:00,47.1,24.0,29.87,SE,142,0.0,1.0,40,0.00,,---,0.03,VWS V14.01,2013-04-09 11:21:00,
2013-04-09 07:26:00,47.1,24.0,29.87,SE,142,0.0,1.0,40,0.00,,---,0.03,VWS V14.01,2013-04-09 11:26:00,
2013-04-09 07:30:00,46.7,23.7,29.88,SE,142,0.0,4.0,40,0.00,,---,0.03,VWS V14.01,2013-04-09 11:30:00,
2013-04-09 07:31:00,47.3,24.2,29.87,SE,143,0.0,1.0,40,0.00,,---,0.03,VWS V14.01,2013-04-09 11:31:00,
2013-04-09 07:36:00,47.4,24.3,29.87,SE,143,0.0,0.0,40,0.00,,---,0.03,VWS V14.01,2013-04-09 11:36:00,
2013-04-09 07:41:00,47.6,24.5,29.87,SE,129,0.0,3.0,40,0.00,,---,0.03,VWS V14.01,2013-04-09 11:41:00,
2013-04-09 07:46:00,47.9,24.8,29.87,SE,132,1.0,3.0,40,0.00,,---,0.03,VWS V14.01,2013-04-09 11:46:00,
2013-04-09 07:51:00,48.0,24.9,29.87,SE,135,0.0,3.0,40,0.00,,---,0.03,VWS V14.01,2013-04-09 11:51:00,
2013-04-09 07:56:00,48.3,25.1,29.87,SE,135,0.0,3.0,40,0.00,,---,0.03,VWS V14.01,2013-04-09 11:56:00,
2013-04-09 08:00:00,46.8,23.8,29.87,SE,142,0.0,0.0,40,0.00,,---,0.03,VWS V14.01,2013-04-09 12:00:00,
2013-04-09 08:01:00,48.6,25.4,29.87,SE,135,0.0,3.0,40,0.00,,---,0.03,VWS V14.01,2013-04-09 12:01:00,
2013-04-09 08:06:00,49.1,25.8,29.87,SE,136,0.0,1.0,40,0.00,,---,0.03,VWS V14.01,2013-04-09 12:06:00,
2013-04-09 08:11:00,49.1,25.8,29.87,SE,138,1.0,2.0,40,0.00,,---,0.03,VWS V14.01,2013-04-09 12:11:00,
2013-04-09 08:16:00,49.2,25.9,29.86,SE,139,0.0,2.0,40,0.00,,---,0.03,VWS V14.01,2013-04-09 12:16:00,
2013-04-09 08:21:00,49.5,26.2,29.86,SE,144,1.0,2.0,40,0.00,,---,0.03,VWS V14.01,2013-04-09 12:21:00,
2013-04-09 08:26:00,49.6,26.3,29.86,SSE,154,2.0,3.0,40,0.00,,---,0.03,VWS V14.01,2013-04-09 12:26:00,
2013-04-09 08:30:00,47.3,24.2,29.87,SE,143,0.0,1.0,40,0.00,,---,0.03,VWS V14.01,2013-04-09 12:30:00,
2013-04-09 08:31:00,49.9,26.6,29.86,SSE,157,0.0,3.0,40,0.00,,---,0.03,VWS V14.01,2013-04-09 12:31:00,
2013-04-09 08:36:00,50.4,27.0,29.86,SSE,160,0.0,3.0,40,0.00,,---,0.03,VWS V14.01,2013-04-09 12:36:00,
2013-04-09 08:41:00,51.3,27.8,29.86,South,170,2.0,4.0,40,0.00,,---,0.03,VWS V14.01,2013-04-09 12:41:00,
2013-04-09 08:46:00,51.9,28.4,29.85,SW,236,0.0,7.0,40,0.00,,---,0.03,VWS V14.01,2013-04-09 12:46:00,
2013-04-09 08:51:00,52.2,28.6,29.85,WSW,257,0.0,7.0,40,0.00,,---,0.03,VWS V14.01,2013-04-09 12:51:00,
2013-04-09 08:56:00,52.8,29.2,29.85,West,271,0.0,7.0,40,0.00,,---,0.03,VWS V14.01,2013-04-09 12:56:00,
2013-04-09 09:00:00,48.6,25.4,29.87,SE,135,0.0,3.0,40,0.00,,---,0.03,VWS V14.01,2013-04-09 13:00:00,
2013-04-09 09:01:00,53.2,29.5,29.85,West,275,2.0,2.0,40,0.00,,---,0.03,VWS V14.01,2013-04-09 13:01:00,
2013-04-09 09:06:00,53.8,30.1,29.85,WNW,293,3.0,6.0,40,0.00,,---,0.03,VWS V14.01,2013-04-09 13:06:00,
2013-04-09 09:12:00,54.4,30.0,29.85,SW,233,3.0,6.0,39,0.00,,---,0.03,VWS V14.01,2013-04-09 13:12:00,
2013-04-09 09:17:00,55.0,30.5,29.85,WNW,290,3.0,10.0,39,0.00,,---,0.03,VWS V14.01,2013-04-09 13:17:00,
2013-04-09 09:22:00,55.7,31.1,29.85,WSW,244,7.0,11.0,39,0.00,,---,0.03,VWS V14.01,2013-04-09 13:22:00,
2013-04-09 09:27:00,56.5,31.2,29.85,WSW,247,2.0,11.0,38,0.00,,---,0.03,VWS V14.01,2013-04-09 13:27:00,
2013-04-09 09:30:00,50.1,26.7,29.86,SSE,157,0.0,3.0,40,0.00,,---,0.03,VWS V14.01,2013-04-09 13:30:00,
2013-04-09 09:32:00,57.2,31.8,29.85,NW,304,4.0,5.0,38,0.00,,---,0.03,VWS V14.01,2013-04-09 13:32:00,
2013-04-09 09:37:00,58.1,32.7,29.85,WNW,291,3.0,6.0,38,0.00,,---,0.03,VWS V14.01,2013-04-09 13:37:00,
2013-04-09 09:42:00,59.0,33.5,29.85,WSW,238,11.0,11.0,38,0.00,,---,0.03,VWS V14.01,2013-04-09 13:42:00,
2013-04-09 09:47:00,59.8,34.2,29.85,West,265,3.0,11.0,38,0.00,,---,0.03,VWS V14.01,2013-04-09 13:47:00,
2013-04-09 09:52:00,60.7,34.3,29.85,WSW,257,3.0,11.0,37,0.00,,---,0.03,VWS V14.01,2013-04-09 13:52:00,
2013-04-09 09:57:00,61.2,34.7,29.85,SSW,208,5.0,11.0,37,0.00,,---,0.03,VWS V14.01,2013-04-09 13:57:00,
2013-04-09 10:00:00,53.2,29.5,29.85,West,274,1.0,7.0,40,0.00,,---,0.03,VWS V14.01,2013-04-09 14:00:00,
2013-04-09 10:02:00,62.0,35.5,29.85,SW,236,8.0,9.0,37,0.00,,---,0.03,VWS V14.01,2013-04-09 14:02:00,
2013-04-09 10:07:00,63.1,36.4,29.85,WSW,252,5.0,10.0,37,0.00,,---,0.03,VWS V14.01,2013-04-09 14:07:00,
2013-04-09 10:12:00,63.9,37.1,29.85,WSW,244,0.0,11.0,37,0.00,,---,0.03,VWS V14.01,2013-04-09 14:12:00,
2013-04-09 10:18:00,64.7,37.2,29.84,SW,228,4.0,11.0,36,0.00,,---,0.03,VWS V14.01,2013-04-09 14:18:00,
2013-04-09 10:23:00,65.0,37.4,29.84,West,263,5.0,13.0,36,0.00,,---,0.03,VWS V14.01,2013-04-09 14:23:00,
2013-04-09 10:28:00,65.2,37.6,29.84,WNW,293,4.0,13.0,36,0.00,,---,0.03,VWS V14.01,2013-04-09 14:28:00,
2013-04-09 10:30:00,57.2,31.8,29.85,NW,305,4.0,11.0,38,0.00,,---,0.03,VWS V14.01,2013-04-09 14:30:00,
2013-04-09 10:33:00,65.6,38.0,29.85,WNW,283,3.0,10.0,36,0.00,,---,0.03,VWS V14.01,2013-04-09 14:33:00,
2013-04-09 10:38:00,66.3,38.6,29.85,West,281,6.0,12.0,36,0.00,,---,0.03,VWS V14.01,2013-04-09 14:38:00,
2013-04-09 10:43:00,66.8,39.0,29.85,WSW,238,10.0,14.0,36,0.00,,---,0.03,VWS V14.01,2013-04-09 14:43:00,
2013-04-09 10:48:00,66.9,39.1,29.85,SW,221,10.0,16.0,36,0.01,,---,0.04,VWS V14.01,2013-04-09 14:48:00,
2013-04-09 10:53:00,67.1,39.3,29.85,WNW,293,8.0,16.0,36,0.01,,---,0.04,VWS V14.01,2013-04-09 14:53:00,
2013-04-09 10:58:00,67.3,39.5,29.85,SW,221,9.0,16.0,36,0.01,,---,0.04,VWS V14.01,2013-04-09 14:58:00,
2013-04-09 11:00:00,61.8,35.3,29.85,WSW,249,6.0,12.0,37,0.00,,---,0.03,VWS V14.01,2013-04-09 15:00:00,
2013-04-09 11:03:00,67.9,40.0,29.85,West,264,3.0,7.0,36,0.01,,---,0.04,VWS V14.01,2013-04-09 15:03:00,
2013-04-09 11:08:00,68.1,40.2,29.85,SW,215,7.0,12.0,36,0.01,,---,0.04,VWS V14.01,2013-04-09 15:08:00,
2013-04-09 11:13:00,67.9,40.0,29.85,West,265,7.0,12.0,36,0.01,,---,0.04,VWS V14.01,2013-04-09 15:13:00,
2013-04-09 11:18:00,68.8,40.8,29.85,SW,236,7.0,12.0,36,0.01,,---,0.04,VWS V14.01,2013-04-09 15:18:00,
2013-04-09 11:23:00,69.6,41.5,29.85,SW,233,7.0,12.0,36,0.01,,---,0.04,VWS V14.01,2013-04-09 15:23:00,
2013-04-09 11:28:00,69.9,41.0,29.85,West,259,7.0,12.0,35,0.01,,---,0.04,VWS V14.01,2013-04-09 15:28:00,
2013-04-09 11:30:00,65.6,38.0,29.85,West,277,6.0,13.0,36,0.00,,---,0.03,VWS V14.01,2013-04-09 15:30:00,
2013-04-09 11:33:00,69.9,41.0,29.84,West,277,10.0,11.0,35,0.01,,---,0.04,VWS V14.01,2013-04-09 15:33:00,
2013-04-09 11:38:00,70.3,41.4,29.84,WNW,295,5.0,11.0,35,0.01,,---,0.04,VWS V14.01,2013-04-09 15:38:00,
2013-04-09 11:43:00,70.6,41.7,29.84,SW,233,6.0,12.0,35,0.01,,---,0.04,VWS V14.01,2013-04-09 15:43:00,
2013-04-09 11:48:00,70.9,41.9,29.84,West,264,10.0,15.0,35,0.01,,---,0.04,VWS V14.01,2013-04-09 15:48:00,
2013-04-09 11:53:00,71.3,42.3,29.84,West,262,4.0,15.0,35,0.01,,---,0.04,VWS V14.01,2013-04-09 15:53:00,
2013-04-09 11:58:00,72.0,42.9,29.84,West,271,6.0,15.0,35,0.01,,---,0.04,VWS V14.01,2013-04-09 15:58:00,
2013-04-09 12:00:00,67.6,39.7,29.85,West,272,5.0,17.0,36,0.01,,---,0.04,VWS V14.01,2013-04-09 16:00:00,
2013-04-09 12:03:00,72.1,43.0,29.83,WNW,291,6.0,12.0,35,0.00,,---,0.04,VWS V14.01,2013-04-09 16:03:00,
2013-04-09 12:08:00,72.5,43.3,29.83,West,267,4.0,15.0,35,0.00,,---,0.04,VWS V14.01,2013-04-09 16:08:00,
2013-04-09 12:13:00,73.0,43.8,29.83,West,270,7.0,15.0,35,0.00,,---,0.04,VWS V14.01,2013-04-09 16:13:00,
2013-04-09 12:18:00,73.5,44.2,29.83,SW,218,7.0,18.0,35,0.00,,---,0.04,VWS V14.01,2013-04-09 16:18:00,
2013-04-09 12:23:00,74.0,43.9,29.83,West,281,9.0,18.0,34,0.00,,---,0.04,VWS V14.01,2013-04-09 16:23:00,
2013-04-09 12:28:00,74.4,44.2,29.83,WNW,288,3.0,18.0,34,0.00,,---,0.04,VWS V14.01,2013-04-09 16:28:00,
2013-04-09 12:30:00,69.9,41.0,29.84,SW,231,9.0,12.0,35,0.01,,---,0.04,VWS V14.01,2013-04-09 16:30:00,
2013-04-09 12:33:00,74.6,44.4,29.83,NW,306,3.0,9.0,34,0.00,,---,0.04,VWS V14.01,2013-04-09 16:33:00,
2013-04-09 12:38:00,75.1,44.8,29.83,West,275,10.0,13.0,34,0.00,,---,0.04,VWS V14.01,2013-04-09 16:38:00,
2013-04-09 12:43:00,76.1,44.9,29.83,WNW,287,12.0,17.0,33,0.00,,---,0.04,VWS V14.01,2013-04-09 16:43:00,
2013-04-09 12:48:00,76.5,45.3,29.82,WNW,302,13.0,17.0,33,0.00,,---,0.04,VWS V14.01,2013-04-09 16:48:00,
2013-04-09 12:53:00,76.7,45.5,29.82,WNW,303,9.0,21.0,33,0.00,,---,0.04,VWS V14.01,2013-04-09 16:53:00,
2013-04-09 12:58:00,76.8,45.5,29.82,WSW,257,6.0,21.0,33,0.00,,---,0.04,VWS V14.01,2013-04-09 16:58:00,
2013-04-09 13:00:00,72.0,42.9,29.83,WSW,246,8.0,18.0,35,0.01,,---,0.04,VWS V14.01,2013-04-09 17:00:00,
2013-04-09 13:03:00,77.0,45.7,29.82,WNW,286,9.0,15.0,33,0.00,,---,0.04,VWS V14.01,2013-04-09 17:03:00,
2013-04-09 13:08:00,77.6,46.2,29.82,NNW,344,2.0,15.0,33,0.00,,---,0.04,VWS V14.01,2013-04-09 17:08:00,
2013-04-09 13:13:00,77.9,46.5,29.82,WNW,299,15.0,22.0,33,0.00,,---,0.04,VWS V14.01,2013-04-09 17:13:00,
2013-04-09 13:18:00,77.7,46.3,29.82,WNW,290,14.0,22.0,33,0.00,,---,0.04,VWS V14.01,2013-04-09 17:18:00,
2013-04-09 13:23:00,77.7,46.3,29.82,NNW,335,8.0,22.0,33,0.00,,---,0.04,VWS V14.01,2013-04-09 17:23:00,
2013-04-09 13:28:00,77.4,46.1,29.82,WNW,299,5.0,22.0,33,0.00,,---,0.04,VWS V14.01,2013-04-09 17:28:00,
2013-04-09 13:30:00,74.6,44.4,29.83,West,264,6.0,18.0,34,0.00,,---,0.04,VWS V14.01,2013-04-09 17:30:00,
2013-04-09 13:33:00,77.4,46.1,29.82,NW,309,10.0,14.0,33,0.00,,---,0.04,VWS V14.01,2013-04-09 17:33:00,
2013-04-09 13:38:00,77.7,46.3,29.82,NW,309,14.0,17.0,33,0.00,,---,0.04,VWS V14.01,2013-04-09 17:38:00,
2013-04-09 13:43:00,77.2,45.9,29.82,NNW,333,10.0,20.0,33,0.00,,---,0.04,VWS V14.01,2013-04-09 17:43:00,
2013-04-09 13:48:00,77.0,45.7,29.83,NW,318,7.0,20.0,33,0.00,,---,0.04,VWS V14.01,2013-04-09 17:48:00,
2013-04-09 13:53:00,77.2,45.9,29.83,WNW,293,13.0,22.0,33,0.00,,---,0.04,VWS V14.01,2013-04-09 17:53:00,
2013-04-09 13:58:00,77.4,46.1,29.83,NNW,332,11.0,22.0,33,0.00,,---,0.04,VWS V14.01,2013-04-09 17:58:00,
2013-04-09 14:00:00,76.8,45.5,29.82,NNW,342,7.0,21.0,33,0.00,,---,0.04,VWS V14.01,2013-04-09 18:00:00,
2013-04-09 14:03:00,77.4,46.1,29.83,NW,307,14.0,14.0,33,0.00,,---,0.04,VWS V14.01,2013-04-09 18:03:00,
2013-04-09 14:08:00,77.4,46.1,29.83,NW,317,10.0,16.0,33,0.00,,---,0.04,VWS V14.01,2013-04-09 18:08:00,
2013-04-09 14:13:00,77.0,45.7,29.83,North,349,13.0,19.0,33,0.00,,---,0.04,VWS V14.01,2013-04-09 18:13:00,
2013-04-09 14:18:00,76.7,45.5,29.83,NNW,342,4.0,21.0,33,0.00,,---,0.04,VWS V14.01,2013-04-09 18:18:00,
2013-04-09 14:23:00,77.4,46.1,29.83,NW,309,7.0,21.0,33,0.00,,---,0.04,VWS V14.01,2013-04-09 18:23:00,
2013-04-09 14:28:00,77.4,46.1,29.83,NNW,337,5.0,21.0,33,0.00,,---,0.04,VWS V14.01,2013-04-09 18:28:00,
2013-04-09 14:30:00,77.2,45.9,29.82,NW,310,5.0,22.0,33,0.00,,---,0.04,VWS V14.01,2013-04-09 18:30:00,
2013-04-09 14:33:00,76.8,45.5,29.84,WNW,296,7.0,15.0,33,0.00,,---,0.04,VWS V14.01,2013-04-09 18:33:00,
2013-04-09 14:38:00,77.0,45.7,29.84,North,358,12.0,18.0,33,0.00,,---,0.04,VWS V14.01,2013-04-09 18:38:00,
2013-04-09 14:43:00,76.7,45.5,29.84,North,358,12.0,23.0,33,0.00,,---,0.04,VWS V14.01,2013-04-09 18:43:00,
2013-04-09 14:48:00,76.8,45.5,29.84,NW,312,7.0,23.0,33,0.00,,---,0.04,VWS V14.01,2013-04-09 18:48:00,
2013-04-09 14:53:00,77.4,46.1,29.84,North,354,10.0,23.0,33,0.00,,---,0.04,VWS V14.01,2013-04-09 18:53:00,
2013-04-09 14:58:00,78.1,46.7,29.84,NW,324,8.0,23.0,33,0.00,,---,0.04,VWS V14.01,2013-04-09 18:58:00,
2013-04-09 15:00:00,77.2,45.9,29.83,NNW,328,4.0,22.0,33,0.00,,---,0.04,VWS V14.01,2013-04-09 19:00:00,
2013-04-09 15:03:00,77.7,46.3,29.84,NW,321,10.0,13.0,33,0.00,,---,0.04,VWS V14.01,2013-04-09 19:03:00,
2013-04-09 15:08:00,77.6,46.2,29.84,WNW,293,9.0,14.0,33,0.00,,---,0.04,VWS V14.01,2013-04-09 19:08:00,
2013-04-09 15:13:00,77.7,46.3,29.84,North,0,7.0,17.0,33,0.00,,---,0.04,VWS V14.01,2013-04-09 19:13:00,
2013-04-09 15:18:00,77.9,46.5,29.83,NW,311,11.0,18.0,33,0.00,,---,0.04,VWS V14.01,2013-04-09 19:18:00,
2013-04-09 15:23:00,77.4,46.1,29.83,North,1,15.0,22.0,33,0.00,,---,0.04,VWS V14.01,2013-04-09 19:23:00,
2013-04-09 15:28:00,77.0,45.7,29.83,NNW,335,8.0,22.0,33,0.00,,---,0.04,VWS V14.01,2013-04-09 19:28:00,
2013-04-09 15:30:00,77.0,45.7,29.84,WNW,293,6.0,21.0,33,0.00,,---,0.04,VWS V14.01,2013-04-09 19:30:00,
2013-04-09 15:33:00,76.8,45.5,29.85,NW,307,11.0,20.0,33,0.00,,---,0.04,VWS V14.01,2013-04-09 19:33:00,
2013-04-09 15:38:00,76.8,45.5,29.85,West,281,9.0,22.0,33,0.00,,---,0.04,VWS V14.01,2013-04-09 19:38:00,
2013-04-09 15:43:00,77.0,45.7,29.85,NE,39,0.0,22.0,33,0.00,,---,0.04,VWS V14.01,2013-04-09 19:43:00,
2013-04-09 15:49:00,77.4,46.1,29.84,North,0,7.0,22.0,33,0.00,,---,0.04,VWS V14.01,2013-04-09 19:49:00,
2013-04-09 15:54:00,77.2,45.9,29.84,NNW,328,14.0,22.0,33,0.00,,---,0.04,VWS V14.01,2013-04-09 19:54:00,
2013-04-09 15:59:00,77.4,46.1,29.84,SW,236,6.0,22.0,33,0.00,,---,0.04,VWS V14.01,2013-04-09 19:59:00,
2013-04-09 16:00:00,77.9,46.5,29.84,NW,319,4.0,23.0,33,0.00,,---,0.04,VWS V14.01,2013-04-09 20:00:00,
2013-04-09 16:04:00,77.4,46.1,29.85,NNW,340,12.0,12.0,33,0.00,,---,0.04,VWS V14.01,2013-04-09 20:04:00,
2013-04-09 16:09:00,77.0,45.7,29.85,WNW,293,14.0,14.0,33,0.00,,---,0.04,VWS V14.01,2013-04-09 20:09:00,
2013-04-09 16:14:00,77.0,45.7,29.85,NW,311,4.0,15.0,33,0.00,,---,0.04,VWS V14.01,2013-04-09 20:14:00,
2013-04-09 16:19:00,77.2,45.9,29.85,NNW,347,10.0,15.0,33,0.00,,---,0.04,VWS V14.01,2013-04-09 20:19:00,
2013-04-09 16:24:00,76.5,45.3,29.85,North,0,6.0,19.0,33,0.00,,---,0.04,VWS V14.01,2013-04-09 20:24:00,
2013-04-09 16:29:00,76.0,44.8,29.85,West,262,6.0,19.0,33,0.00,,---,0.04,VWS V14.01,2013-04-09 20:29:00,
2013-04-09 16:30:00,77.0,45.7,29.85,NW,321,11.0,22.0,33,0.00,,---,0.04,VWS V14.01,2013-04-09 20:30:00,
2013-04-09 16:34:00,76.0,44.8,29.85,WNW,286,6.0,13.0,33,0.00,,---,0.04,VWS V14.01,2013-04-09 20:34:00,
2013-04-09 16:39:00,76.0,44.8,29.85,NW,321,5.0,13.0,33,0.00,,---,0.04,VWS V14.01,2013-04-09 20:39:00,
2013-04-09 16:44:00,75.8,44.7,29.85,NNW,347,4.0,15.0,33,0.00,,---,0.04,VWS V14.01,2013-04-09 20:44:00,
2013-04-09 16:49:00,75.8,44.7,29.86,NNW,343,2.0,15.0,33,0.00,,---,0.04,VWS V14.01,2013-04-09 20:49:00,
2013-04-09 16:54:00,76.0,44.8,29.86,North,356,9.0,15.0,33,0.00,,---,0.04,VWS V14.01,2013-04-09 20:54:00,
2013-04-09 16:59:00,75.8,44.7,29.86,North,358,5.0,16.0,33,0.00,,---,0.04,VWS V14.01,2013-04-09 20:59:00,
2013-04-09 17:00:00,77.4,46.1,29.85,NNW,333,6.0,22.0,33,0.00,,---,0.04,VWS V14.01,2013-04-09 21:00:00,
2013-04-09 17:04:00,76.0,44.8,29.86,NW,304,5.0,13.0,33,0.00,,---,0.04,VWS V14.01,2013-04-09 21:04:00,
2013-04-09 17:09:00,75.8,44.7,29.86,NNW,345,5.0,16.0,33,0.00,,---,0.04,VWS V14.01,2013-04-09 21:09:00,
2013-04-09 17:14:00,75.4,44.3,29.86,WNW,303,7.0,17.0,33,0.00,,---,0.04,VWS V14.01,2013-04-09 21:14:00,
2013-04-09 17:19:00,75.4,44.3,29.86,WNW,303,8.0,17.0,33,0.00,,---,0.04,VWS V14.01,2013-04-09 21:19:00,
2013-04-09 17:24:00,75.3,44.2,29.86,North,3,9.0,17.0,33,0.00,,---,0.04,VWS V14.01,2013-04-09 21:24:00,
2013-04-09 17:29:00,75.1,44.1,29.86,NNW,342,3.0,17.0,33,0.00,,---,0.04,VWS V14.01,2013-04-09 21:29:00,
2013-04-09 17:30:00,76.0,44.8,29.85,NW,323,13.0,19.0,33,0.00,,---,0.04,VWS V14.01,2013-04-09 21:30:00,
2013-04-09 17:35:00,75.1,44.1,29.86,NW,325,1.0,13.0,33,0.00,,---,0.04,VWS V14.01,2013-04-09 21:35:00,
2013-04-09 17:40:00,75.1,44.1,29.86,North,0,3.0,13.0,33,0.00,,---,0.04,VWS V14.01,2013-04-09 21:40:00,
2013-04-09 17:45:00,74.7,43.7,29.86,North,1,3.0,13.0,33,0.00,,---,0.04,VWS V14.01,2013-04-09 21:45:00,
2013-04-09 17:50:00,74.6,43.6,29.86,NW,322,3.0,13.0,33,0.00,,---,0.04,VWS V14.01,2013-04-09 21:50:00,
2013-04-09 17:55:00,74.2,43.3,29.86,NNW,346,3.0,13.0,33,0.00,,---,0.04,VWS V14.01,2013-04-09 21:55:00,
2013-04-09 18:00:00,73.9,43.0,29.86,North,4,2.0,13.0,33,0.00,,---,0.04,VWS V14.01,2013-04-09 22:00:00,
2013-04-09 18:05:00,73.7,42.8,29.88,North,349,2.0,7.0,33,0.00,,---,0.04,VWS V14.01,2013-04-09 22:05:00,
2013-04-09 18:10:00,73.5,42.7,29.88,North,0,4.0,7.0,33,0.00,,---,0.04,VWS V14.01,2013-04-09 22:10:00,
2013-04-09 18:15:00,73.3,42.5,29.88,North,354,0.0,9.0,33,0.00,,---,0.04,VWS V14.01,2013-04-09 22:15:00,
2013-04-09 18:20:00,73.3,42.5,29.88,North,356,3.0,9.0,33,0.00,,---,0.04,VWS V14.01,2013-04-09 22:20:00,
2013-04-09 18:25:00,73.3,42.5,29.88,NNW,339,7.0,9.0,33,0.00,,---,0.04,VWS V14.01,2013-04-09 22:25:00,
2013-04-09 18:30:00,73.0,42.2,29.88,North,0,4.0,9.0,33,0.00,,---,0.04,VWS V14.01,2013-04-09 22:30:00,
2013-04-09 18:35:00,72.8,42.0,29.89,North,5,3.0,3.0,33,0.00,,---,0.04,VWS V14.01,2013-04-09 22:35:00,
2013-04-09 18:40:00,72.8,42.0,29.89,North,1,3.0,4.0,33,0.00,,---,0.04,VWS V14.01,2013-04-09 22:40:00,
2013-04-09 18:45:00,72.7,42.0,29.89,North,11,1.0,10.0,33,0.00,,---,0.04,VWS V14.01,2013-04-09 22:45:00,
2013-04-09 18:50:00,72.3,41.6,29.89,North,0,1.0,10.0,33,0.00,,---,0.04,VWS V14.01,2013-04-09 22:50:00,
2013-04-09 18:55:00,72.1,41.4,29.89,North,7,7.0,10.0,33,0.00,,---,0.04,VWS V14.01,2013-04-09 22:55:00,
2013-04-09 19:00:00,71.6,41.0,29.89,North,0,2.0,10.0,33,0.00,,---,0.04,VWS V14.01,2013-04-09 23:00:00,
2013-04-09 19:05:00,71.3,41.5,29.89,NNW,343,0.0,6.0,34,0.00,,---,0.04,VWS V14.01,2013-04-09 23:05:00,
2013-04-09 19:10:00,70.8,40.3,29.89,North,7,6.0,7.0,33,0.00,,---,0.04,VWS V14.01,2013-04-09 23:10:00,
2013-04-09 19:16:00,70.6,40.1,29.90,NNE,14,2.0,9.0,33,0.00,,---,0.04,VWS V14.01,2013-04-09 23:16:00,
2013-04-09 19:21:00,70.3,40.6,29.90,NNW,339,5.0,9.0,34,0.00,,---,0.04,VWS V14.01,2013-04-09 23:21:00,
2013-04-09 19:26:00,70.1,40.5,29.90,NNW,342,1.0,9.0,34,0.00,,---,0.04,VWS V14.01,2013-04-09 23:26:00,
2013-04-09 19:30:00,73.0,42.2,29.89,North,6,2.0,9.0,33,0.00,,---,0.04,VWS V14.01,2013-04-09 23:30:00,
2013-04-09 19:31:00,69.8,40.2,29.91,North,358,1.0,9.0,34,0.00,,---,0.04,VWS V14.01,2013-04-09 23:31:00,
2013-04-09 19:36:00,69.4,39.8,29.91,North,358,1.0,5.0,34,0.00,,---,0.04,VWS V14.01,2013-04-09 23:36:00,
2013-04-09 19:41:00,69.1,39.6,29.91,North,358,0.0,5.0,34,0.00,,---,0.04,VWS V14.01,2013-04-09 23:41:00,
2013-04-09 19:46:00,68.6,39.1,29.91,North,358,1.0,5.0,34,0.00,,---,0.04,VWS V14.01,2013-04-09 23:46:00,
2013-04-09 19:51:00,68.3,38.9,29.91,North,358,0.0,5.0,34,0.00,,---,0.04,VWS V14.01,2013-04-09 23:51:00,
2013-04-09 19:56:00,67.8,38.4,29.91,North,358,0.0,5.0,34,0.00,,---,0.04,VWS V14.01,2013-04-09 23:56:00,
2013-04-09 20:00:00,71.6,41.0,29.89,North,358,4.0,10.0,33,0.00,,---,0.04,VWS V14.01,2013-04-10 00:00:00,
2013-04-09 20:01:00,67.4,38.1,29.91,North,358,0.0,5.0,34,0.00,,---,0.04,VWS V14.01,2013-04-10 00:01:00,
2013-04-09 20:06:00,66.9,37.7,29.91,North,358,0.0,0.0,34,0.00,,---,0.04,VWS V14.01,2013-04-10 00:06:00,
2013-04-09 20:11:00,66.4,37.2,29.91,North,358,0.0,0.0,34,0.00,,---,0.04,VWS V14.01,2013-04-10 00:11:00,
2013-04-09 20:15:00,66.0,36.8,29.91,North,358,0.0,0.0,34,0.00,,---,0.04,VWS V14.01,2013-04-10 00:15:00,
2013-04-09 20:20:00,65.0,36.7,29.91,North,358,0.0,1.0,35,0.00,,---,0.04,VWS V14.01,2013-04-10 00:20:00,
2013-04-09 20:25:00,63.7,35.6,29.91,North,358,0.0,1.0,35,0.00,,---,0.04,VWS V14.01,2013-04-10 00:25:00,
2013-04-09 20:30:00,62.9,34.8,29.92,North,358,0.0,1.0,35,0.00,,---,0.04,VWS V14.01,2013-04-10 00:30:00,
2013-04-09 20:35:00,62.3,34.3,29.92,North,358,0.0,0.0,35,0.00,,---,0.04,VWS V14.01,2013-04-10 00:35:00,
2013-04-09 20:41:00,61.6,34.4,29.92,North,358,0.0,0.0,36,0.00,,---,0.04,VWS V14.01,2013-04-10 00:41:00,
2013-04-09 20:45:00,61.2,34.1,29.92,North,358,0.0,0.0,36,0.00,,---,0.04,VWS V14.01,2013-04-10 00:45:00,
2013-04-09 20:51:00,60.7,33.6,29.92,North,358,0.0,0.0,36,0.00,,---,0.04,VWS V14.01,2013-04-10 00:51:00,
2013-04-09 20:56:00,60.2,33.2,29.92,North,358,0.0,0.0,36,0.00,,---,0.04,VWS V14.01,2013-04-10 00:56:00,
2013-04-09 21:00:00,67.4,38.1,29.91,North,358,0.0,5.0,34,0.00,,---,0.04,VWS V14.01,2013-04-10 01:00:00,
2013-04-09 21:01:00,59.8,32.8,29.92,North,358,0.0,0.0,36,0.00,,---,0.04,VWS V14.01,2013-04-10 01:01:00,
2013-04-09 21:06:00,59.3,32.4,29.92,North,358,0.0,0.0,36,0.00,,---,0.04,VWS V14.01,2013-04-10 01:06:00,
2013-04-09 21:10:00,59.2,32.3,29.92,North,358,0.0,0.0,36,0.00,,---,0.04,VWS V14.01,2013-04-10 01:10:00,
2013-04-09 21:15:00,58.7,31.8,29.93,North,358,1.0,2.0,36,0.00,,---,0.04,VWS V14.01,2013-04-10 01:15:00,
2013-04-09 21:20:00,58.6,31.8,29.93,North,358,0.0,2.0,36,0.00,,---,0.04,VWS V14.01,2013-04-10 01:20:00,
2013-04-09 21:26:00,58.3,31.5,29.93,North,358,0.0,2.0,36,0.00,,---,0.04,VWS V14.01,2013-04-10 01:26:00,
2013-04-09 21:30:00,62.7,34.7,29.92,North,358,0.0,1.0,35,0.00,,---,0.04,VWS V14.01,2013-04-10 01:30:00,
2013-04-09 21:31:00,58.0,31.2,29.92,North,358,0.0,3.0,36,0.00,,---,0.04,VWS V14.01,2013-04-10 01:31:00,
2013-04-09 21:36:00,58.3,31.5,29.92,North,358,0.0,0.0,36,0.00,,---,0.04,VWS V14.01,2013-04-10 01:36:00,
2013-04-09 21:41:00,58.3,31.5,29.92,North,358,0.0,0.0,36,0.00,,---,0.04,VWS V14.01,2013-04-10 01:41:00,
2013-04-09 21:46:00,58.1,31.3,29.93,North,358,1.0,2.0,36,0.00,,---,0.04,VWS V14.01,2013-04-10 01:46:00,
2013-04-09 21:51:00,57.8,31.0,29.93,North,358,0.0,2.0,36,0.00,,---,0.04,VWS V14.01,2013-04-10 01:51:00,
2013-04-09 21:56:00,57.6,31.5,29.93,North,358,0.0,3.0,37,0.00,,---,0.04,VWS V14.01,2013-04-10 01:56:00,
2013-04-09 22:00:00,59.6,32.6,29.92,North,358,0.0,0.0,36,0.00,,---,0.04,VWS V14.01,2013-04-10 02:00:00,
2013-04-09 22:01:00,57.3,31.3,29.92,North,358,1.0,3.0,37,0.00,,---,0.04,VWS V14.01,2013-04-10 02:01:00,
2013-04-09 22:06:00,57.2,31.2,29.92,North,358,0.0,1.0,37,0.00,,---,0.04,VWS V14.01,2013-04-10 02:06:00,
2013-04-09 22:11:00,57.0,31.0,29.92,North,358,1.0,2.0,37,0.00,,---,0.04,VWS V14.01,2013-04-10 02:11:00,
2013-04-09 22:16:00,56.9,30.2,29.93,North,358,0.0,2.0,36,0.00,,---,0.04,VWS V14.01,2013-04-10 02:16:00,
2013-04-09 22:21:00,57.0,31.0,29.93,North,358,0.0,2.0,37,0.00,,---,0.04,VWS V14.01,2013-04-10 02:21:00,
2013-04-09 22:26:00,56.9,30.9,29.93,North,358,0.0,2.0,37,0.00,,---,0.04,VWS V14.01,2013-04-10 02:26:00,
2013-04-09 22:30:00,58.0,31.2,29.92,North,358,0.0,3.0,36,0.00,,---,0.04,VWS V14.01,2013-04-10 02:30:00,
2013-04-09 22:31:00,56.7,30.7,29.93,North,358,0.0,2.0,37,0.00,,---,0.04,VWS V14.01,2013-04-10 02:31:00,
2013-04-09 22:36:00,56.7,30.7,29.93,North,358,0.0,0.0,37,0.00,,---,0.04,VWS V14.01,2013-04-10 02:36:00,
2013-04-09 22:41:00,56.6,30.6,29.93,North,358,0.0,0.0,37,0.00,,---,0.04,VWS V14.01,2013-04-10 02:41:00,
2013-04-09 22:46:00,56.5,30.6,29.92,North,358,0.0,0.0,37,0.00,,---,0.04,VWS V14.01,2013-04-10 02:46:00,
2013-04-09 22:51:00,56.3,30.4,29.92,North,358,0.0,0.0,37,0.00,,---,0.04,VWS V14.01,2013-04-10 02:51:00,
2013-04-09 22:56:00,56.2,30.3,29.92,North,358,0.0,0.0,37,0.00,,---,0.04,VWS V14.01,2013-04-10 02:56:00,
2013-04-09 23:00:00,57.3,30.6,29.92,North,358,0.0,3.0,36,0.00,,---,0.04,VWS V14.01,2013-04-10 03:00:00,
2013-04-09 23:01:00,55.7,29.9,29.92,North,358,0.0,1.0,37,0.00,,---,0.04,VWS V14.01,2013-04-10 03:01:00,
2013-04-09 23:06:00,55.4,29.6,29.92,North,358,0.0,0.0,37,0.00,,---,0.00,VWS V14.01,2013-04-10 03:06:00,
2013-04-09 23:11:00,55.3,29.5,29.92,North,358,0.0,0.0,37,0.00,,---,0.00,VWS V14.01,2013-04-10 03:11:00,
2013-04-09 23:16:00,55.3,29.5,29.91,ESE,122,6.0,10.0,37,0.00,,---,0.00,VWS V14.01,2013-04-10 03:16:00,
2013-04-09 23:21:00,56.0,30.1,29.91,ESE,111,5.0,12.0,37,0.00,,---,0.00,VWS V14.01,2013-04-10 03:21:00,
2013-04-09 23:26:00,56.0,30.1,29.91,SE,136,7.0,14.0,37,0.00,,---,0.00,VWS V14.01,2013-04-10 03:26:00,
2013-04-09 23:30:00,56.7,30.7,29.93,North,358,0.0,2.0,37,0.00,,---,0.04,VWS V14.01,2013-04-10 03:30:00,
2013-04-09 23:31:00,55.6,29.8,29.90,ESE,115,1.0,14.0,37,0.00,,---,0.00,VWS V14.01,2013-04-10 03:31:00,
2013-04-09 23:36:00,55.0,29.2,29.90,ESE,109,2.0,11.0,37,0.00,,---,0.00,VWS V14.01,2013-04-10 03:36:00,
2013-04-09 23:41:00,54.4,28.7,29.90,ESE,104,3.0,11.0,37,0.00,,---,0.00,VWS V14.01,2013-04-10 03:41:00,
2013-04-09 23:46:00,53.5,27.9,29.89,ESE,113,6.0,14.0,37,0.00,,---,0.00,VWS V14.01,2013-04-10 03:46:00,
2013-04-09 23:51:00,52.8,27.9,29.89,East,89,2.0,14.0,38,0.00,,---,0.00,VWS V14.01,2013-04-10 03:51:00,
2013-04-09 23:56:00,52.3,27.5,29.89,ESE,105,7.0,14.0,38,0.00,,---,0.00,VWS V14.01,2013-04-10 03:56:00,